Regional Weather Roundup
Issued by NWS State College, PA

Home | Current Version | Previous Version | Graphics & Text | Print | Product List | Glossary On
Versions: 1 2 3 4 5 6 7 8 9 10 11 12 13 14 15 16 17 18 19 20 21 22 23 24 25 26 27 28 29 30 31 32 33 34 35 36 37 38 39 40 41 42 43 44 45 46 47 48 49 50
000
ASUS41 KCTP 230510
RWRCTP

REGIONAL WEATHER ROUNDUP
NATIONAL WEATHER SERVICE STATE COLLEGE PA
100 AM EDT WED MAY 23 2018

Note: "fair" indicates few or no clouds below 12,000 feet with no
significant weather and/or obstructions to visibility.

* = STATION THAT DOES NOT REPORT PRECIPITATION /E.G. RAIN...SNOW...ETC/
    THUNDER OR FOG.

PAZ002>004-007>009-013>016-020>023-029>032-230600-
WESTERN PENNSYLVANIA

CITY           SKY/WX    TMP DP  RH WIND       PRES   REMARKS
ERIE           CLOUDY    56  52  86 SW3       30.00S
MEADVILLE      CLOUDY    57  57 100 NW8       30.01R FOG
FRANKLIN*      MOCLDY    60  58  92 NW7       30.01R
NEW CASTLE     CLOUDY    63  63 100 CALM      30.02R FOG
BEAVER COUNTY  NOT AVBL
BUTLER*        MOCLDY    61  61 100 SW5       30.00S
PITTSBURGH INT MOCLDY    64  62  93 NW6       29.99S
PITTSBURGH     FAIR      62  62 100 NW5       29.98R
INDIANA*       CLOUDY    64  63  94 W6        30.02R
LATROBE        MOCLDY    64  64 100 NW6       29.99F
WASHINGTON CO* FAIR      62  61  96 CALM      30.02S
$$

PAZ004>006-010>012-017>019-024>028-033>037-041-042-045-046-049>053-230600-
CENTRAL PENNSYLVANIA

CITY           SKY/WX    TMP DP  RH WIND       PRES   REMARKS
BRADFORD       LGT RAIN  61  60  97 NW13      29.97S
DUBOIS         CLOUDY    64  62  93 NW9       29.97R
CLEARFIELD     FOG       63  63 100 S6        29.95S VSB 3/4
JOHNSTOWN      CLOUDY    65  61  87 NW9       29.99F
ALTOONA        MOCLDY    69  62  78 W5        29.96F
STATE COLLEGE  CLOUDY    64  64  99 NW3       29.94S
WILLIAMSPORT   RAIN      63  61  93 NE3       29.91S
SELINSGROVE    LGT RAIN  62  61  96 CALM      29.93F FOG
FT INDIANTOWN  FOG       61  61 100 CALM      29.94F VSB 7/8
CAPITAL CITY   CLOUDY    65  63  93 CALM      29.93S FOG
HARRISBURG     CLOUDY    65  63  93 E3        29.93F FOG
YORK           CLOUDY    67  66  97 S3        29.95F FOG
$$

PAZ038>040-043-044-047-048-054-055-060>062-067>071-230600-
EASTERN PENNSYLVANIA

CITY           SKY/WX    TMP DP  RH WIND       PRES   REMARKS
SCRANTON       LGT RAIN  60  59  96 CALM      29.93F FOG
MOUNT POCONO   RAIN      55  55 100 W7        29.96S
ALLENTOWN      LGT RAIN  60  57  89 N3        29.97R FOG
QUAKERTOWN*    FOG       59  59 100 CALM      29.96S VSB 3/4
READING        CLOUDY    61  61 100 CALM      29.94F FOG
LANCASTER      FOG       65  64  97 CALM      29.94F VSB 3/4
COATESVILLE    FOG       61  61 100 CALM      29.96F VSB 1/4
POTTSTOWN      CLOUDY    60  60 100 CALM      29.96S FOG
BLUE BELL      CLOUDY    59  59 100 CALM      29.96S
DOYLESTOWN     NOT AVBL
WILLOW GROVE   NOT AVBL
NORTH PHILA    NOT AVBL
PHILADELPHIA   CLOUDY    62  61  96 CALM      29.95S
$$




USA.gov is the U.S. government's official web portal to all federal, state and local government web resources and services.